Location: Lecco
(45.8566°N, 9.3977°E)
Time: 05:40:22
(UTC+02:00)

Explorer 7 - All Passes

Search period start: 19 July 2019 00:00
Search period end: 29 July 2019 00:00
Orbit: 485 x 680 km, 50.3° (Epoch: 18 July)

Date Brightness Start Highest point End Pass type
(mag) Time Alt. Az. Time Alt. Az. Time Alt. Az.
19 Jul - 01:16:50 10° WSW 01:20:34 68° NNW 01:24:21 10° ENE visible
19 Jul - 02:57:48 10° WNW 03:01:25 41° N 03:05:08 10° ENE visible
19 Jul - 04:38:25 10° WNW 04:42:16 71° NNE 04:46:18 10° ESE visible
19 Jul - 06:19:06 10° W 06:22:35 30° SW 06:26:13 10° SSE daylight
19 Jul - 23:41:38 10° SW 23:45:14 45° SSE 23:48:51 10° ENE visible
20 Jul - 01:22:02 10° W 01:25:42 53° NNW 01:29:27 10° ENE visible
20 Jul - 03:02:59 10° WNW 03:06:37 43° N 03:10:22 10° E visible
20 Jul - 04:43:29 10° WNW 04:47:21 85° SSW 04:51:25 10° ESE visible
20 Jul - 06:24:35 10° W 06:27:29 19° SW 06:30:29 10° S daylight
20 Jul - 22:08:21 10° SSE 22:10:19 14° SE 22:12:16 10° ESE visible
20 Jul - 23:46:30 10° SW 23:50:15 69° SSE 23:54:00 10° ENE visible
21 Jul - 01:27:15 10° W 01:30:53 45° N 01:34:34 10° ENE visible
21 Jul - 03:08:07 10° WNW 03:11:49 49° NNE 03:15:38 10° E visible
21 Jul - 04:48:36 10° WNW 04:52:23 58° SSW 04:56:23 10° SE visible
21 Jul - 06:30:43 10° WSW 06:32:20 12° SW 06:33:57 10° SSW daylight
21 Jul - 22:12:11 10° S 22:15:10 22° SE 22:18:07 10° E visible
21 Jul - 23:51:32 10° WSW 23:55:18 83° NNW 23:59:05 10° ENE visible
22 Jul - 01:32:30 10° WNW 01:36:06 41° N 01:39:44 10° ENE visible
22 Jul - 03:13:13 10° WNW 03:16:58 60° NNE 03:20:52 10° E visible
22 Jul - 04:53:47 10° WNW 04:57:23 38° SW 05:01:09 10° SSE visible
22 Jul - 22:16:36 10° SSW 22:20:05 34° SE 22:23:30 10° ENE visible
22 Jul - 23:56:41 10° W 00:00:26 62° NNW 00:04:09 10° ENE visible
23 Jul - 01:37:42 10° WNW 01:41:18 41° N 01:44:56 10° ENE visible
23 Jul - 03:18:18 10° WNW 03:22:06 78° NNE 03:26:02 10° ESE visible
23 Jul - 04:59:07 10° W 05:02:19 25° SW 05:05:39 10° SSE visible
23 Jul - 22:21:19 10° SW 22:25:03 53° SSE 22:28:43 10° ENE visible
24 Jul - 00:01:54 10° W 00:05:35 49° NNW 00:09:15 10° ENE visible
24 Jul - 01:42:52 10° WNW 01:46:30 44° N 01:50:11 10° E visible
24 Jul - 03:23:23 10° WNW 03:27:11 75° SSW 03:31:06 10° ESE visible
24 Jul - 05:04:46 10° W 05:07:12 16° SW 05:09:42 10° S visible
24 Jul - 20:47:33 10° S 20:50:03 17° SE 20:52:30 10° E daylight
24 Jul - 22:26:15 10° WSW 22:30:05 79° SSE 22:33:50 10° ENE visible
25 Jul - 00:07:09 10° W 00:10:46 43° N 00:14:24 10° ENE visible
25 Jul - 01:48:00 10° WNW 01:51:41 51° NNE 01:55:26 10° E visible
25 Jul - 03:28:30 10° WNW 03:32:11 50° SSW 03:36:00 10° SE visible
25 Jul - 20:51:40 10° SSW 20:54:56 26° SE 20:58:07 10° E daylight
25 Jul - 22:31:20 10° WSW 22:35:09 75° NNW 22:38:55 10° ENE visible
26 Jul - 00:12:22 10° WNW 00:15:58 41° N 00:19:34 10° ENE visible
26 Jul - 01:53:05 10° WNW 01:56:50 64° NNE 02:00:38 10° ESE visible
26 Jul - 03:33:44 10° WNW 03:37:10 32° SW 03:40:41 10° SSE visible
26 Jul - 20:56:12 10° SW 20:59:52 40° SE 21:03:26 10° ENE daylight
26 Jul - 22:36:31 10° W 22:40:17 57° NNW 22:44:00 10° ENE visible
27 Jul - 00:17:34 10° WNW 00:21:10 41° N 00:24:46 10° ENE visible
27 Jul - 01:58:09 10° WNW 02:01:56 87° NNE 02:05:47 10° ESE visible
27 Jul - 03:39:09 10° W 03:42:04 21° SW 03:45:03 10° S night (unlit)
27 Jul - 19:23:16 10° SSE 19:24:56 12° SE 19:26:35 10° ESE daylight
27 Jul - 21:01:00 10° SW 21:04:52 61° SSE 21:08:36 10° ENE daylight
27 Jul - 22:41:45 10° W 22:45:27 47° N 22:49:06 10° ENE visible
28 Jul - 00:22:43 10° WNW 00:26:22 46° N 00:30:01 10° E visible
28 Jul - 02:03:15 10° WNW 02:06:59 66° SSW 02:10:47 10° SE visible
28 Jul - 03:45:05 10° WSW 03:46:55 13° SW 03:48:46 10° SSW night (unlit)
28 Jul - 19:26:51 10° S 19:29:47 20° SE 19:32:38 10° E daylight
28 Jul - 21:05:59 10° WSW 21:09:54 89° SSE 21:13:42 10° ENE daylight
28 Jul - 22:46:59 10° WNW 22:50:38 42° N 22:54:14 10° ENE visible
